sat.trackr.live / text

‹ back to catalog

STARLINK-2506

NORAD 48315 · 2021-036AR

PAYLOAD ACTIVE UNKNOWN

§ Identity

Operator
Country
US
Launch date
2021-04-29
Launch site
AFETR
Launch vehicle
Mass (kg)
RCS (m²)

Purposes: comms

External: N2YO · Heavens-Above · Gunter

§ Orbital elements

Epoch: 2026-09-20T00:48:04.852800Z

Period
94.01 min
Inclination
53.1590°
Eccentricity
0.0001053
Mean motion
15.31694181 rev/d
Perigee alt
470.0 km
Apogee alt
471.5 km
Semi-major
6,848.9 km
B*
2.7401e-5
RAAN
274.4908°
Arg perigee
99.9949°
Mean anomaly
260.1171°
Rev number
29,783

§ Raw data

STARLINK-25061 48315U 21036AR  26263.03338950  .00000485  00000+0  27401-4 0  99972 48315  53.1590 274.4908 0001053  99.9949 260.1171 15.31694181297834

JSON: /api/v1/satellites/48315 · /tle

For live sub-satellite position, see the globe view (requires WebGL).

§ Visibility from observer

Set your observer location to see the next 7 days of passes ≥ 10°. The values pass through the URL so the page stays shareable.

No JS? Fill the form by hand. The geolocation button needs JavaScript.